Weather past 2 weeks in Port-aux-Francais, French Southern Territories

Now
39 °F

Chilly.


Feels Like: 39 °F
Forecast: 36 / 41 °F
Wind: 1 mph from West

Location: Port-Aux-Francais Iles Kerguelen

Current Time: May 22, 2015 at 6:06:54 PM

Latest Report: May 22, 2015 at 5:00 PM


Visibility: N/A

Pressure: 29.59 "Hg

Humidity: 84%

Dew point: 35 °F

Location of Port-aux-FrancaisLocation

Historic Weather in Port-aux-Francais — Graph

°F

Port-aux-Francais temperature yesterday

Maximum temperature yesterday: 48 °F (at 12:00 AM)
Minimum temperature yesterday: 39 °F (at 6:00 PM)
Average temperature yesterday: 43 °F

Past Weeks' High & Low Weather Summary

 TemperatureHumidityPressure
High56 °F (May 14, 1:00 PM)94% (May 18, 6:00 AM)30.46 "Hg (May 18, 6:00 AM)
Low31 °F (May 17, 5:00 AM)43% (May 14, 12:00 AM)29.03 "Hg (May 8, 11:00 AM)
Average42 °F76%29.73 "Hg
* Reported May 7 4:00 PM — May 22 4:00 PM, Port-aux-Francais, Weather by CustomWeather, © 2015

Note: Actual official high and low records may vary slightly from our data, if they occured in-between our weather recording intervals... More about our weather records

Advertising

Port-aux-Francais weather history for previous 24 hours

 ConditionsComfort  
Time TempWeatherWind HumidityBarometerVisibility
4:00 PM
Fri, May 22
40 °FChilly.1 mph81%29.59 "HgN/A
3:00 PM40 °FQuite cool.8 mph81%29.61 "HgN/A
2:00 PM41 °FLight rain. Overcast.14 mph72%29.63 "Hg5 mi
1:00 PM42 °FQuite cool.20 mph63%29.63 "HgN/A
12:00 PM41 °FQuite cool.13 mph64%29.67 "HgN/A
11:00 AM42 °FPassing clouds.23 mph57%29.68 "Hg19 mi
10:00 AM41 °FQuite cool.21 mph58%29.68 "HgN/A
9:00 AM39 °FChilly.26 mph61%29.67 "HgN/A
8:00 AM39 °FPassing clouds.13 mph63%29.69 "Hg12 mi
7:00 AM39 °FChilly.31 mph65%29.65 "HgN/A
6:00 AM39 °FChilly.29 mph66%29.64 "HgN/A
5:00 AM38 °FChilly.39 mph67%29.59 "HgN/A
4:00 AM39 °FChilly.37 mph67%29.55 "HgN/A
3:00 AM39 °FChilly.40 mph70%29.54 "HgN/A
1:00 AM39 °FChilly.36 mph70%29.47 "HgN/A
12:00 AM39 °FChilly.39 mph70%29.41 "HgN/A
11:00 PM
Thu, May 21
40 °FChilly.37 mph65%29.38 "HgN/A
10:00 PM39 °FChilly.41 mph65%29.35 "HgN/A
9:00 PM40 °FChilly.40 mph65%29.35 "HgN/A
8:00 PM40 °FQuite cool.36 mph64%29.35 "HgN/A
7:00 PM40 °FChilly.33 mph65%29.32 "HgN/A
6:00 PM39 °FChilly.29 mph77%29.29 "HgN/A
Weather by CustomWeather, © 2015

See weather overviewHow to use our weather pages